Volver al catálogo

STARLINK-34183

ActivoComunicacionesVLEO
NORAD 64254·PAYLOAD·🇺🇸 United States

Lanzado Jun 3, 2025 desde Cape Canaveral Space Force Station

Loading…

Próximos Pases (próximas 24 horas)

TLE

ActualizadoSource: CelesTrak SupGP

Época: Sep 15, 2026, 03:33 UTC

1 64254C 25119X   26258.14840278  .00035858  00000+0  12985-2 0  2589
2 64254  43.0024 317.4235 0001617 262.9473 350.9661 15.27567221    18

Sigue STARLINK-34183 en tiempo real con AllMySat

Download on the App Store